Flag for Germany Weather past 2 weeks in Ellwangen (Jagst), Baden-Württemberg, Germany

Now
38 °F

Drizzle. Low clouds.


Feels Like: 33 °F
Forecast: 34 / 41 °F
Wind: 8 mph from Southwest

Location: Stoetten

Current Time: Mar 1, 2015 at 2:21:08 PM

Latest Report: Mar 1, 2015 at 2:00 PM


Visibility: 13 mi

Pressure: 29.82 "Hg

Humidity: 94%

Dew point: 37 °F

Location of Ellwangen (Jagst)Location

Historic Weather in Ellwangen (Jagst) — Graph

°F

Ellwangen (Jagst) temperature yesterday

Maximum temperature yesterday: 38 °F (at 4:00 PM)
Minimum temperature yesterday: 29 °F (at 11:00 PM)
Average temperature yesterday: 32 °F

Past Weeks' High & Low Weather Summary

 TemperatureHumidityPressure
High45 °F (Feb 20, 3:00 PM)100% (Feb 15, 3:00 PM)30.79 "Hg (Feb 15, 3:00 PM)
Low19 °F (Feb 17, 4:00 AM)36% (Feb 21, 1:00 AM)29.54 "Hg (Feb 21, 1:00 PM)
Average30 °F88%30.08 "Hg
* Reported Feb 14 1:00 PM — Mar 1 1:00 PM, Ellwangen (Jagst), Weather by CustomWeather, © 2015

Note: Actual official high and low records may vary slightly from our data, if they occured in-between our weather recording intervals... More about our weather records

Advertising

Ellwangen (Jagst) weather history for previous 24 hours

 ConditionsComfort  
Time TempWeatherWind HumidityBarometerVisibility
1:00 PM
Sun, Mar 1
37 °FDrizzle. Low clouds.8 mph94%29.84 "Hg3 mi
12:00 PM36 °FOvercast.7 mph90%29.85 "Hg47 mi
11:00 AM36 °FOvercast.9 mph91%29.83 "Hg37 mi
10:00 AM34 °FLight rain. Overcast.9 mph94%29.86 "Hg25 mi
9:00 AM33 °FLight rain. Overcast.8 mph97%29.88 "Hg3 mi
8:00 AM33 °FLight rain. Overcast.8 mph93%29.89 "Hg5 mi
7:00 AM31 °FLight freezing rain. Overcast.6 mph91%29.90 "Hg7 mi
6:00 AM31 °FOvercast.6 mph87%29.92 "Hg14 mi
5:00 AM30 °FFog.5 mph92%29.95 "Hg4 mi
4:00 AM29 °FFog.3 mph93%29.96 "Hg3 mi
3:00 AM29 °FFog.5 mph96%30.00 "Hg2 mi
2:00 AM29 °FFog.6 mph93%30.01 "Hg3 mi
1:00 AM30 °FFog.5 mph92%30.03 "Hg3 mi
12:00 AM29 °FFog.3 mph92%30.06 "Hg4 mi
11:00 PM
Sat, Feb 28
29 °FFog.5 mph94%30.09 "Hg3 mi
10:00 PM29 °FFog.3 mph92%30.11 "Hg4 mi
9:00 PM30 °FClear.3 mph90%30.12 "Hg16 mi
8:00 PM31 °FClear.3 mph89%30.13 "Hg19 mi
7:00 PM32 °FPassing clouds.3 mph87%30.13 "Hg17 mi
6:00 PM34 °FScattered clouds.2 mph81%30.12 "Hg28 mi
5:00 PM35 °FPartly sunny.2 mph76%30.11 "Hg34 mi
4:00 PM38 °FPartly sunny.2 mph65%30.11 "Hg37 mi
3:00 PM37 °FPartly sunny.2 mph68%30.13 "Hg40 mi
2:00 PM36 °FPartly sunny.2 mph70%30.14 "Hg37 mi
Weather by CustomWeather, © 2015

See weather overviewHow to use our weather pages